TimeEST,TemperatureF,Dew PointF,Humidity,Sea Level PressureIn,VisibilityMPH,Wind Direction,Wind SpeedMPH,Gust SpeedMPH,PrecipitationIn,Events,Conditions,WindDirDegrees,DateUTC
12:14 AM,39.2,35.6,87,29.85,5.0,Calm,Calm,-,N/A,,Overcast,0,2013-12-04 05:14:00
12:34 AM,39.2,35.6,87,29.85,4.0,Calm,Calm,-,N/A,,Overcast,0,2013-12-04 05:34:00
12:54 AM,39.2,35.6,87,29.85,4.0,Calm,Calm,-,N/A,,Overcast,0,2013-12-04 05:54:00
1:14 AM,39.2,37.4,93,29.84,4.0,ENE,4.6,-,N/A,,Overcast,70,2013-12-04 06:14:00
1:34 AM,39.2,37.4,93,29.84,4.0,Calm,Calm,-,N/A,,Overcast,0,2013-12-04 06:34:00
1:55 AM,41.0,37.4,87,29.83,4.0,East,5.8,-,N/A,,Overcast,100,2013-12-04 06:55:00
2:14 AM,41.0,37.4,87,29.84,5.0,Calm,Calm,-,N/A,,Overcast,0,2013-12-04 07:14:00
2:34 AM,41.0,37.4,87,29.84,4.0,East,3.5,-,N/A,,Overcast,90,2013-12-04 07:34:00
2:54 AM,41.0,37.4,87,29.83,4.0,ESE,5.8,-,N/A,,Overcast,120,2013-12-04 07:54:00
3:14 AM,42.8,39.2,87,29.84,5.0,ESE,4.6,-,N/A,,Mostly Cloudy,120,2013-12-04 08:14:00
3:34 AM,42.8,39.2,87,29.84,7.0,SE,4.6,-,N/A,,Mostly Cloudy,140,2013-12-04 08:34:00
3:54 AM,42.8,39.2,87,29.84,7.0,SE,4.6,-,N/A,,Overcast,130,2013-12-04 08:54:00
4:14 AM,44.6,39.2,81,29.85,7.0,SE,5.8,-,N/A,,Mostly Cloudy,130,2013-12-04 09:14:00
4:34 AM,44.6,39.2,81,29.86,7.0,SE,5.8,-,N/A,,Overcast,140,2013-12-04 09:34:00
4:54 AM,44.6,39.2,81,29.85,7.0,SE,4.6,-,N/A,,Overcast,130,2013-12-04 09:54:00
5:14 AM,42.8,39.2,87,29.85,7.0,Calm,Calm,-,N/A,,Scattered Clouds,0,2013-12-04 10:14:00
5:34 AM,41.0,37.4,87,29.85,5.0,Calm,Calm,-,N/A,,Mostly Cloudy,0,2013-12-04 10:34:00
5:54 AM,39.2,37.4,93,29.86,3.0,Calm,Calm,-,N/A,,Overcast,0,2013-12-04 10:54:00
6:14 AM,39.2,37.4,93,29.87,3.0,Calm,Calm,-,N/A,,Overcast,0,2013-12-04 11:14:00
6:34 AM,39.2,37.4,93,29.86,3.0,East,3.5,-,N/A,,Overcast,90,2013-12-04 11:34:00
6:54 AM,41.0,37.4,87,29.87,3.0,Calm,Calm,-,N/A,,Overcast,0,2013-12-04 11:54:00
7:14 AM,39.2,37.4,93,29.87,3.0,Calm,Calm,-,N/A,,Overcast,0,2013-12-04 12:14:00
7:34 AM,41.0,37.4,87,29.88,3.0,Calm,Calm,-,N/A,,Overcast,0,2013-12-04 12:34:00
7:54 AM,41.0,37.4,87,29.87,3.0,Calm,Calm,-,N/A,,Overcast,0,2013-12-04 12:54:00
8:14 AM,41.0,39.2,93,29.87,4.0,East,3.5,-,N/A,,Overcast,100,2013-12-04 13:14:00
8:35 AM,42.8,39.2,87,29.88,4.0,ESE,4.6,-,N/A,,Overcast,110,2013-12-04 13:35:00
8:54 AM,42.8,39.2,87,29.88,3.0,ESE,3.5,-,N/A,,Overcast,110,2013-12-04 13:54:00
9:14 AM,44.6,41.0,87,29.88,4.0,Calm,Calm,-,N/A,,Overcast,0,2013-12-04 14:14:00
9:35 AM,44.6,41.0,87,29.88,4.0,Calm,Calm,-,N/A,,Overcast,0,2013-12-04 14:35:00
9:54 AM,44.6,42.8,93,29.88,4.0,Calm,Calm,-,N/A,,Overcast,0,2013-12-04 14:54:00
10:14 AM,46.4,42.8,87,29.88,5.0,Calm,Calm,-,N/A,,Overcast,0,2013-12-04 15:14:00
10:34 AM,46.4,42.8,87,29.87,5.0,ESE,3.5,-,N/A,,Overcast,120,2013-12-04 15:34:00
10:54 AM,48.2,42.8,82,29.87,7.0,SE,4.6,-,N/A,,Overcast,130,2013-12-04 15:54:00
11:14 AM,48.2,44.6,87,29.86,7.0,SE,5.8,-,N/A,,Overcast,130,2013-12-04 16:14:00
11:34 AM,48.2,42.8,82,29.85,7.0,SE,4.6,-,N/A,,Overcast,130,2013-12-04 16:34:00
11:54 AM,48.2,44.6,87,29.84,7.0,SE,5.8,-,N/A,,Overcast,130,2013-12-04 16:54:00
12:14 PM,50.0,44.6,82,29.82,7.0,SE,4.6,-,N/A,,Overcast,130,2013-12-04 17:14:00
12:34 PM,51.8,44.6,76,29.81,10.0,ESE,6.9,-,N/A,,Mostly Cloudy,120,2013-12-04 17:34:00
12:54 PM,51.8,46.4,82,29.79,10.0,SE,6.9,-,N/A,,Clear,130,2013-12-04 17:54:00
1:14 PM,51.8,46.4,82,29.79,7.0,SE,6.9,-,N/A,,Clear,140,2013-12-04 18:14:00
1:34 PM,51.8,44.6,76,29.79,7.0,SE,10.4,-,N/A,,Mostly Cloudy,140,2013-12-04 18:34:00
1:54 PM,50.0,44.6,82,29.79,7.0,SE,11.5,16.1,N/A,,Overcast,140,2013-12-04 18:54:00
2:14 PM,50.0,44.6,82,29.78,7.0,SE,9.2,-,N/A,,Overcast,130,2013-12-04 19:14:00
2:34 PM,51.8,46.4,82,29.77,7.0,ESE,5.8,-,N/A,,Mostly Cloudy,120,2013-12-04 19:34:00
2:54 PM,51.8,46.4,82,29.77,7.0,ESE,5.8,-,N/A,,Mostly Cloudy,110,2013-12-04 19:54:00
3:14 PM,51.8,46.4,82,29.76,7.0,ESE,5.8,-,N/A,,Mostly Cloudy,120,2013-12-04 20:14:00
3:34 PM,51.8,46.4,82,29.77,10.0,ESE,4.6,-,N/A,,Mostly Cloudy,120,2013-12-04 20:34:00
3:54 PM,51.8,46.4,82,29.76,10.0,East,4.6,-,N/A,,Mostly Cloudy,100,2013-12-04 20:54:00
4:14 PM,51.8,46.4,82,29.75,10.0,East,4.6,-,N/A,,Overcast,100,2013-12-04 21:14:00
4:34 PM,51.8,46.4,82,29.74,10.0,ESE,8.1,-,N/A,,Overcast,110,2013-12-04 21:34:00
4:54 PM,51.8,46.4,82,29.73,10.0,ESE,8.1,-,N/A,,Overcast,110,2013-12-04 21:54:00
5:15 PM,53.6,46.4,77,29.72,10.0,ESE,10.4,-,N/A,,Overcast,120,2013-12-04 22:15:00
5:34 PM,53.6,48.2,82,29.72,10.0,ESE,10.4,-,N/A,,Overcast,120,2013-12-04 22:34:00
5:54 PM,53.6,48.2,82,29.72,10.0,ESE,12.7,17.3,N/A,,Overcast,120,2013-12-04 22:54:00
6:14 PM,53.6,46.4,77,29.71,10.0,SE,12.7,17.3,N/A,,Overcast,140,2013-12-04 23:14:00
6:34 PM,53.6,48.2,82,29.71,10.0,SE,15.0,23.0,N/A,,Overcast,140,2013-12-04 23:34:00
6:54 PM,53.6,46.4,77,29.70,10.0,SE,12.7,-,N/A,,Overcast,140,2013-12-04 23:54:00
7:14 PM,51.8,46.4,82,29.70,10.0,SE,13.8,20.7,N/A,,Overcast,140,2013-12-05 00:14:00
7:34 PM,51.8,46.4,82,29.70,10.0,SE,13.8,19.6,N/A,Rain,Light Rain,140,2013-12-05 00:34:00
7:54 PM,50.0,44.6,82,29.69,10.0,SE,16.1,21.9,N/A,,Mostly Cloudy,140,2013-12-05 00:54:00
8:14 PM,50.0,44.6,82,29.68,10.0,SSE,17.3,24.2,N/A,,Mostly Cloudy,150,2013-12-05 01:14:00
8:34 PM,48.2,44.6,87,29.68,10.0,SSE,18.4,24.2,N/A,,Overcast,150,2013-12-05 01:34:00
8:54 PM,46.4,42.8,87,29.67,10.0,SSE,15.0,20.7,N/A,,Mostly Cloudy,150,2013-12-05 01:54:00
9:14 PM,46.4,42.8,87,29.68,10.0,SSE,13.8,19.6,N/A,,Overcast,160,2013-12-05 02:14:00
9:34 PM,44.6,41.0,87,29.68,7.0,South,8.1,-,N/A,,Overcast,170,2013-12-05 02:34:00
9:54 PM,44.6,41.0,87,29.67,7.0,South,10.4,-,N/A,,Overcast,190,2013-12-05 02:54:00
10:14 PM,44.6,41.0,87,29.67,7.0,South,4.6,-,N/A,,Overcast,180,2013-12-05 03:14:00
10:34 PM,44.6,41.0,87,29.66,7.0,South,6.9,-,N/A,,Overcast,180,2013-12-05 03:34:00
10:54 PM,44.6,41.0,87,29.65,7.0,South,5.8,9.2,N/A,,Overcast,170,2013-12-05 03:54:00
11:14 PM,44.6,42.8,93,29.65,7.0,South,6.9,-,N/A,,Overcast,180,2013-12-05 04:14:00
11:34 PM,44.6,41.0,87,29.64,7.0,South,8.1,-,N/A,,Overcast,170,2013-12-05 04:34:00
11:55 PM,44.6,41.0,87,29.64,7.0,South,10.4,-,N/A,,Overcast,170,2013-12-05 04:55:00